This is the latest recevied weather packets stored in our database for station/object KB1YYC. If no packets are shown the sender has not sent any weather packets the latest 10 day(s).
| Time | Temp. | Humidity | Pressure | Rain* | Wind** | Luminosity | Snow |
|---|---|---|---|---|---|---|---|
| 1778183880 | 16.67° C | 33% | 1004.6 hPa | 0 mm | - | 85 W/m² | - |
| 1778183578 | 16.11° C | 33% | 1004.7 hPa | 0 mm | - | 102 W/m² | - |
| 1778183275 | 16.11° C | 34% | 1004.8 hPa | 0 mm | - | 410 W/m² | - |
| 1778182971 | 16.67° C | 33% | 1004.7 hPa | 0 mm | - | 386 W/m² | - |
| 1778182668 | 16.11° C | 33% | 1004.8 hPa | 0 mm | - | 357 W/m² | - |
| 1778182364 | 16.11° C | 32% | 1004.7 hPa | 0 mm | - | 435 W/m² | - |
| 1778182060 | 16.11° C | 33% | 1004.9 hPa | 0 mm | - | 331 W/m² | - |
| 1778181757 | 16.67° C | 32% | 1004.9 hPa | 0 mm | - | 320 W/m² | - |
| 1778181453 | 15.56° C | 34% | 1005 hPa | 0 mm | - | 437 W/m² | - |
| 1778181150 | 15° C | 34% | 1005.1 hPa | 0 mm | - | 439 W/m² | - |
| 1778180847 | 16.11° C | 34% | 1005.2 hPa | 0 mm | - | 90 W/m² | - |
| 1778180546 | 16.67° C | 32% | 1005.1 hPa | 0 mm | - | 441 W/m² | - |
| 1778180244 | 16.67° C | 32% | 1005.1 hPa | 0 mm | - | 439 W/m² | - |
| 1778179940 | 16.67° C | 31% | 1005 hPa | 0 mm | - | 342 W/m² | - |
| 1778179638 | 16.67° C | 34% | 1005.1 hPa | 0 mm | - | 579 W/m² | - |
| 1778179336 | 16.67° C | 33% | 1005 hPa | 0 mm | - | 561 W/m² | - |
| 1778179032 | 16.67° C | 33% | 1005.2 hPa | 0 mm | - | 415 W/m² | - |
| 1778178729 | 16.67° C | 33% | 1005 hPa | 0 mm | - | 688 W/m² | - |
| 1778178426 | 15.56° C | 35% | 1005.3 hPa | 0 mm | - | 733 W/m² | - |
| 1778178121 | 16.11° C | 35% | 1005.2 hPa | 0 mm | - | 99 W/m² | - |
| 1778177818 | 16.67° C | 35% | 1005.2 hPa | 0 mm | - | 713 W/m² | - |
| 1778177515 | 16.11° C | 36% | 1005 hPa | 0 mm | - | 274 W/m² | - |
| 1778177211 | 16.11° C | 35% | 1005.2 hPa | 0 mm | - | 698 W/m² | - |
| 1778176909 | 16.67° C | 32% | 1005.3 hPa | 0 mm | - | 719 W/m² | - |
| 1778176604 | 16.67° C | 35% | 1005 hPa | 0 mm | - | 731 W/m² | - |
* Rain latest hour (hover to see other rain measurements)
** Current wind speed in m/s (hover to see current wind gust speed)